Weather History for KTCM - November, 2013

Change the Weather History Date:

Saturday, November 30, 2013

  Actual Average Record
Temperature  
Mean Temperature 46 °F -  
Max Temperature 50 °F 46 °F 57 °F (2012)
Min Temperature 43 °F 33 °F 14 °F (2014)
Degree Days  
Heating Degree Days 18    
Moisture  
Dew Point 46 °F    
Average Humidity 94    
Maximum Humidity 100    
Minimum Humidity 87    
Precipitation  
Precipitation 0.07 in - - ()
Sea Level Pressure  
Sea Level Pressure 30.27 in    
Wind  
Wind Speed 6 mph (SSW)    
Max Wind Speed 12 mph    
Max Gust Speed -    
Visibility 10 miles    
Events Rain    
Averages and records for this station are not official NWS values.
T = Trace of Precipitation, MM = Missing Value Source: NWS Daily Summary

Daily Weather History Graph

Daily Weather History Graph

Search for Another Location

Airport or City:

Trip Planner

Search our weather history database for the weather conditions in past years. The results will help you decide how hot, cold, wet, or windy it might be!

Date:

Astronomy

Nov. 30, 2013 Rise Set
Actual Time 7:34 AM PST 4:22 PM PST
Civil Twilight 6:59 AM PST 4:57 PM PST
Nautical Twilight 6:21 AM PST 5:35 PM PST
Astronomical Twilight 5:44 AM PST 6:12 PM PST
Moon 4:43 AM PST (11/30) 2:57 PM PST (11/30)
Length of Visible Light 9h 57m
Length of Day
8h 47m
Waning Crescent, 6% of the Moon is Illuminated
Nov 30
Waning Crescent
Dec 2
New
Dec 9
First Quarter
Dec 17
Full
Dec 25
Last Quarter

Hourly Weather History & Observations

Time (PST) Temp. Windchill Dew Point Humidity Pressure Visibility Wind Dir Wind Speed Gust Speed Precip Events Conditions
12:41 AM 44.6 °F 42.2 °F 44.6 °F 100% 30.33 in 10.0 mi SW 4.6 mph - N/A Rain Light Rain
12:58 AM 45.1 °F 43.7 °F 44.8 °F 99% 30.35 in 10.0 mi SSW 3.5 mph - 0.00 in Rain Light Rain
1:33 AM 44.6 °F 40.7 °F 44.6 °F 100% 30.34 in 10.0 mi SW 6.9 mph - N/A   Overcast
1:58 AM 44.8 °F 41.6 °F 44.6 °F 99% 30.36 in 10.0 mi SSW 5.8 mph - 0.02 in   Overcast
2:58 AM 43.2 °F - 43.0 °F 99% 30.35 in 10.0 mi SSW 2.3 mph - N/A   Overcast
3:58 AM 43.0 °F 38.8 °F 43.0 °F 100% 30.35 in 9.0 mi SW 6.9 mph - N/A   Overcast
4:58 AM 43.9 °F 40.5 °F 43.7 °F 99% 30.35 in 10.0 mi SSW 5.8 mph - N/A   Overcast
5:58 AM 45.1 °F 42.0 °F 45.0 °F 99% 30.34 in 10.0 mi SSW 5.8 mph - N/A   Overcast
6:58 AM 44.4 °F 42.0 °F 44.1 °F 99% 30.34 in 10.0 mi South 4.6 mph - N/A   Overcast
7:58 AM 44.4 °F 42.0 °F 44.2 °F 99% 30.34 in 10.0 mi SSW 4.6 mph - N/A   Overcast
8:58 AM 45.5 °F 44.2 °F 45.3 °F 99% 30.34 in 10.0 mi South 3.5 mph - N/A   Overcast
9:58 AM 46.8 °F - 46.6 °F 99% 30.35 in 10.0 mi Variable 3.5 mph - N/A   Overcast
10:28 AM 48.2 °F - 46.4 °F 93% 30.33 in 10.0 mi South 4.6 mph - N/A   Overcast
10:58 AM 47.7 °F - 47.5 °F 99% 30.34 in 10.0 mi SSW 5.8 mph - N/A   Overcast
11:58 AM 48.6 °F - 46.8 °F 93% 30.33 in 10.0 mi SW 5.8 mph - N/A   Overcast
12:34 PM 48.2 °F - 46.4 °F 93% 30.30 in 10.0 mi SW 4.6 mph - N/A Rain Light Rain
12:44 PM 48.2 °F - 46.4 °F 93% 30.30 in 10.0 mi SSW 5.8 mph - N/A Rain Light Rain
12:53 PM 48.2 °F - 48.2 °F 100% 30.30 in 10.0 mi SSW 5.8 mph - N/A   Overcast
12:58 PM 48.6 °F - 47.7 °F 97% 30.31 in 10.0 mi SSW 5.8 mph - 0.00 in   Overcast
1:58 PM 50.0 °F - 47.3 °F 90% 30.30 in 10.0 mi SSW 5.8 mph - N/A   Overcast
2:58 PM 50.5 °F - 46.9 °F 87% 30.29 in 10.0 mi SSW 4.6 mph - N/A   Overcast
3:43 PM 50.0 °F - 46.4 °F 87% 30.26 in 10.0 mi SSW 6.9 mph - N/A   Overcast
3:58 PM 50.4 °F - 46.6 °F 87% 30.27 in 10.0 mi SSW 6.9 mph - N/A   Overcast
4:03 PM 50.0 °F - 46.4 °F 87% 30.25 in 10.0 mi SSW 6.9 mph - N/A   Overcast
4:43 PM 50.0 °F - 46.4 °F 87% 30.25 in 8.0 mi SW 8.1 mph - N/A   Mostly Cloudy
4:58 PM 49.6 °F - 46.2 °F 88% 30.28 in 8.0 mi SW 5.8 mph - N/A   Overcast
5:58 PM 48.6 °F - 46.8 °F 93% 30.26 in 10.0 mi South 4.6 mph - N/A   Overcast
6:33 PM 48.2 °F - 46.4 °F 93% 30.23 in 10.0 mi SSW 8.1 mph - N/A   Overcast
6:58 PM 49.6 °F - 46.6 °F 89% 30.24 in 10.0 mi SW 6.9 mph - N/A   Overcast
7:58 PM 50.2 °F - 47.1 °F 89% 30.23 in 10.0 mi SSW 4.6 mph - N/A   Overcast
8:08 PM 50.0 °F - 46.4 °F 87% 30.21 in 10.0 mi SSW 4.6 mph - N/A   Overcast
8:33 PM 50.0 °F - 46.4 °F 87% 30.20 in 10.0 mi SSW 5.8 mph - N/A   Overcast
8:56 PM 50.0 °F - 48.2 °F 94% 30.19 in 10.0 mi SSW 8.1 mph - N/A Rain Light Rain
8:58 PM 50.0 °F - 48.2 °F 94% 30.21 in 10.0 mi SW 8.1 mph - N/A Rain Light Rain
9:03 PM 50.0 °F - 48.2 °F 94% 30.18 in 10.0 mi SW 6.9 mph - N/A Rain Light Rain
9:15 PM 50.0 °F - 48.2 °F 94% 30.18 in 10.0 mi SW 5.8 mph - N/A   Overcast
9:20 PM 50.0 °F - 48.2 °F 94% 30.18 in 10.0 mi SW 6.9 mph - N/A Rain Light Rain
9:25 PM 50.0 °F - 48.2 °F 94% 30.18 in 10.0 mi SSW 5.8 mph - N/A Rain Light Rain
9:58 PM 49.5 °F - 49.3 °F 99% 30.19 in 10.0 mi SSW 6.9 mph - 0.01 in Rain Light Rain
10:13 PM 50.0 °F - 48.2 °F 94% 30.17 in 10.0 mi SSW 5.8 mph - N/A Rain Light Rain
10:58 PM 49.1 °F - 48.9 °F 99% 30.17 in 10.0 mi South 11.5 mph - 0.03 in Rain Light Rain
11:58 PM 48.7 °F - 48.6 °F 99% 30.14 in 10.0 mi SSW 9.2 mph - 0.01 in Rain Light Rain